Location: Niedergestelen
(46.3129°N, 7.7822°E)
Time: 08:15:40
(UTC+00:00)

Envisat - Visible Passes

Search period start: 18 September 2021 00:00
Search period end: 28 September 2021 00:00
Orbit: 764 x 766 km, 98.2° (Epoch: 17 September)

Date Brightness Start Highest point End Pass type
(mag) Time Alt. Az. Time Alt. Az. Time Alt. Az.
18 Sep 5.9 03:21:29 10° NE 03:24:13 14° E 03:26:56 10° ESE visible
19 Sep 4.0 04:21:59 10° NNE 04:26:57 50° E 04:31:52 10° S visible
20 Sep 5.4 03:45:44 10° NE 03:49:51 24° E 03:53:57 10° SSE visible
21 Sep 6.2 03:11:02 10° ENE 03:12:32 11° E 03:14:04 10° ESE visible
22 Sep 4.5 04:10:35 10° NNE 04:15:23 40° E 04:20:09 10° SSE visible
23 Sep 5.7 03:34:35 10° NE 03:38:13 19° E 03:41:51 10° SE visible
24 Sep 3.5 04:35:44 10° NNE 04:40:49 68° ESE 04:45:52 10° S visible
25 Sep 4.9 03:59:14 10° NNE 04:03:48 32° E 04:08:20 10° SSE visible
26 Sep 5.9 03:23:35 10° NE 03:26:35 16° E 03:29:34 10° SE visible
27 Sep 3.9 04:24:17 10° NNE 04:29:16 54° E 04:34:15 10° S visible
